| time (UTC) | temp F | wind direction | speed knots | gust knots | rain 1hr in | rain 24hr in | rain mn in | humidity % | barometer mb |
| 20260504140855 | 48 | 238 | 2.6 | 7.8 | 0.00 | 0.00 | 0.00 | 75 | 1007.7 |
| 20260504140348 | 49 | 175 | 2.6 | 8.7 | 0.00 | 0.00 | 0.00 | 72 | 1007.7 |
| 20260504130753 | 49 | 193 | 4.3 | 10.4 | 0.00 | 0.00 | 0.00 | 67 | 1006.8 |
| 20260504130252 | 49 | 277 | 5.2 | 13.0 | 0.00 | 0.00 | 0.00 | 66 | 1006.8 |
| 20260504120250 | 49 | 191 | 2.6 | 8.7 | 0.00 | 0.00 | 0.00 | 74 | 1006.8 |
| 20260504110232 | 47 | 212 | 2.6 | 7.8 | 0.00 | 0.00 | 0.00 | 80 | 1007.2 |
| 20260504100228 | 45 | 197 | 2.6 | 6.1 | 0.00 | 0.00 | 0.00 | 85 | 1007.5 |
| 20260504081906 | 45 | 184 | 1.7 | 5.2 | 0.00 | 0.00 | 0.00 | 75 | 1007.9 |
| 20260504081139 | 45 | 179 | 2.6 | 7.0 | 0.00 | 0.00 | 0.00 | 74 | 1008.0 |
| 20260504080632 | 45 | 186 | 2.6 | 8.7 | 0.00 | 0.00 | 0.00 | 74 | 1007.9 |
| 20260504080126 | 45 | 214 | 1.7 | 8.7 | 0.00 | 0.00 | 0.00 | 74 | 1008.0 |
| 20260504070121 | 44 | 224 | 1.7 | 5.2 | 0.00 | 0.00 | 0.00 | 70 | 1008.1 |
| 20260504050459 | 41 | 246 | 0.0 | 0.0 | 0.00 | 0.00 | 0.00 | 67 | 1008.3 |
| 20260504045959 | 41 | 246 | 0.0 | 0.0 | 0.00 | 0.00 | 0.00 | 69 | 1008.5 |
| 20260504045456 | 40 | 246 | 0.0 | 0.9 | 0.00 | 0.00 | 0.00 | 68 | 1008.5 |
| 20260504045222 | 40 | 238 | 0.0 | 0.9 | 0.00 | 0.00 | 0.00 | 68 | 1008.5 |
| 20260504044458 | 39 | 274 | 0.0 | 0.0 | 0.00 | 0.00 | 0.00 | 73 | 1008.6 |
| 20260504043953 | 38 | 180 | 0.0 | 0.0 | 0.00 | 0.00 | 0.00 | 78 | 1008.6 |
| 20260504043451 | 38 | 4 | 0.0 | 0.0 | 0.00 | 0.00 | 0.00 | 80 | 1008.6 |
| 20260504042949 | 37 | 4 | 0.0 | 0.0 | 0.00 | 0.00 | 0.00 | 81 | 1008.7 |
| 20260504042449 | 37 | 4 | 0.0 | 0.0 | 0.00 | 0.00 | 0.00 | 82 | 1008.7 |
| 20260504041947 | 37 | 4 | 0.0 | 0.0 | 0.00 | 0.00 | 0.00 | 83 | 1008.8 |
| 20260504041445 | 37 | 4 | 0.0 | 1.7 | 0.00 | 0.00 | 0.00 | 83 | 1008.7 |
| 20260504040948 | 37 | 4 | 0.0 | 1.7 | 0.00 | 0.00 | 0.00 | 83 | 1008.7 |
| 20260504040445 | 36 | 29 | 0.0 | 0.9 | 0.00 | 0.00 | 0.00 | 82 | 1008.7 |
| 20260504035946 | 36 | 31 | 0.0 | 0.0 | 0.00 | 0.00 | 0.00 | 83 | 1008.8 |
| 20260504035440 | 36 | 20 | 0.0 | 0.0 | 0.00 | 0.00 | 0.00 | 83 | 1008.7 |
| 20260504034934 | 36 | 20 | 0.0 | 0.9 | 0.00 | 0.00 | 0.00 | 83 | 1008.8 |
| 20260504034428 | 36 | 7 | 0.0 | 0.9 | 0.00 | 0.00 | 0.00 | 84 | 1008.8 |
| 20260504033921 | 36 | 14 | 0.0 | 1.7 | 0.00 | 0.00 | 0.00 | 84 | 1008.9 |
| 20260504033639 | 35 | 11 | 0.0 | 1.7 | 0.00 | 0.00 | 0.00 | 84 | 1008.9 |
| 20260504032913 | 35 | 20 | 0.0 | 0.9 | 0.00 | 0.01 | 0.00 | 83 | 1008.8 |
| 20260504032412 | 35 | 20 | 0.0 | 0.0 | 0.00 | 0.01 | 0.00 | 83 | 1008.9 |
| 20260504031912 | 35 | 20 | 0.0 | 0.9 | 0.00 | 0.01 | 0.00 | 83 | 1008.8 |
| 20260504031411 | 36 | 20 | 0.0 | 2.6 | 0.00 | 0.01 | 0.00 | 83 | 1009.0 |
| 20260504030910 | 36 | 12 | 0.0 | 2.6 | 0.00 | 0.01 | 0.00 | 82 | 1008.9 |
| 20260504030409 | 36 | 23 | 0.0 | 0.0 | 0.00 | 0.01 | 0.00 | 83 | 1008.9 |
| 20260504025908 | 36 | 27 | 0.0 | 0.0 | 0.00 | 0.01 | 0.00 | 83 | 1008.9 |
| 20260504025406 | 37 | 8 | 0.0 | 0.0 | 0.00 | 0.01 | 0.00 | 82 | 1009.0 |
| 20260504024907 | 37 | 24 | 0.0 | 0.0 | 0.00 | 0.01 | 0.00 | 80 | 1009.1 |
| 20260504024404 | 37 | 24 | 0.0 | 0.0 | 0.00 | 0.01 | 0.00 | 81 | 1009.1 |
| 20260504024349 | 37 | 24 | 0.0 | 0.0 | 0.00 | 0.01 | 0.00 | 81 | 1009.1 |
| 20260504023635 | 37 | 24 | 0.0 | 0.0 | 0.00 | 0.02 | 0.00 | 81 | 1009.2 |
| 20260504022900 | 37 | 24 | 0.0 | 0.0 | 0.00 | 0.02 | 0.00 | 80 | 1009.2 |
| 20260504022400 | 37 | 24 | 0.0 | 1.7 | 0.00 | 0.02 | 0.00 | 81 | 1009.2 |
| 20260504021900 | 38 | 27 | 0.0 | 1.7 | 0.00 | 0.02 | 0.00 | 80 | 1009.2 |
| 20260504021621 | 38 | 7 | 0.0 | 0.0 | 0.00 | 0.02 | 0.00 | 76 | 1009.2 |
| 20260504020858 | 38 | 210 | 0.0 | 0.0 | 0.00 | 0.02 | 0.00 | 73 | 1009.3 |
| 20260504020400 | 38 | 210 | 0.0 | 0.0 | 0.00 | 0.02 | 0.00 | 75 | 1009.3 |
| 20260504015857 | 38 | 210 | 0.0 | 0.0 | 0.00 | 0.02 | 0.00 | 76 | 1009.3 |
| 20260504015355 | 38 | 210 | 0.0 | 0.0 | 0.00 | 0.02 | 0.00 | 76 | 1009.3 |
| 20260504014858 | 38 | 210 | 0.0 | 0.0 | 0.00 | 0.02 | 0.00 | 76 | 1009.2 |
| 20260504014621 | 39 | 210 | 0.0 | 0.0 | 0.00 | 0.02 | 0.00 | 75 | 1009.3 |
| 20260504013900 | 39 | 210 | 0.0 | 0.0 | 0.00 | 0.02 | 0.00 | 72 | 1009.3 |
| 20260504013400 | 39 | 210 | 0.0 | 0.0 | 0.00 | 0.02 | 0.00 | 70 | 1009.3 |
| 20260504012854 | 39 | 210 | 0.0 | 0.0 | 0.00 | 0.02 | 0.00 | 68 | 1009.3 |
| 20260504012355 | 40 | 210 | 0.0 | 0.0 | 0.00 | 0.02 | 0.00 | 67 | 1009.3 |
| 20260504011901 | 40 | 210 | 0.0 | 0.0 | 0.00 | 0.02 | 0.00 | 66 | 1009.1 |
| 20260504011856 | 40 | 210 | 0.0 | 0.0 | 0.00 | 0.02 | 0.00 | 67 | 1009.2 |
| 20260504011112 | 40 | 210 | 0.0 | 0.0 | 0.00 | 0.02 | 0.00 | 67 | 1009.0 |
| 20260504010350 | 40 | 210 | 0.0 | 0.0 | 0.00 | 0.02 | 0.00 | 67 | 1009.1 |
| 20260504005848 | 40 | 210 | 0.0 | 0.0 | 0.00 | 0.02 | 0.00 | 67 | 1009.0 |
| 20260504005347 | 40 | 210 | 0.0 | 0.0 | 0.00 | 0.02 | 0.00 | 67 | 1008.8 |
| 20260504004846 | 41 | 210 | 0.0 | 0.0 | 0.00 | 0.02 | 0.00 | 67 | 1008.9 |
| 20260504004343 | 41 | 210 | 0.0 | 0.0 | 0.00 | 0.03 | 0.00 | 67 | 1008.8 |
| 20260504004111 | 41 | 210 | 0.0 | 0.0 | 0.00 | 0.03 | 0.00 | 67 | 1008.8 |
| 20260504003339 | 41 | 210 | 0.0 | 0.0 | 0.00 | 0.03 | 0.00 | 67 | 1008.8 |
| 20260504002830 | 42 | 210 | 0.0 | 0.0 | 0.00 | 0.03 | 0.00 | 67 | 1008.9 |
| 20260504002325 | 42 | 210 | 0.0 | 0.0 | 0.00 | 0.03 | 0.00 | 65 | 1008.7 |
| 20260504001820 | 43 | 210 | 0.0 | 0.0 | 0.00 | 0.03 | 0.00 | 63 | 1008.8 |
| 20260504001314 | 44 | 210 | 0.0 | 0.0 | 0.00 | 0.03 | 0.00 | 62 | 1008.8 |
| 20260504000811 | 44 | 210 | 0.0 | 0.0 | 0.00 | 0.03 | 0.00 | 62 | 1008.8 |
| 20260504000312 | 45 | 210 | 0.0 | 0.0 | 0.00 | 0.03 | 0.00 | 61 | 1008.7 |
| 20260503235811 | 46 | 210 | 0.0 | 0.0 | 0.00 | 0.03 | 0.00 | 59 | 1008.7 |
| 20260503235532 | 47 | 210 | 0.0 | 0.0 | 0.00 | 0.04 | 0.00 | 57 | 1008.8 |
| 20260503234812 | 47 | 210 | 0.0 | 0.0 | 0.00 | 0.04 | 0.00 | 54 | 1008.7 |
| 20260503234312 | 48 | 210 | 0.0 | 0.0 | 0.00 | 0.04 | 0.00 | 53 | 1008.7 |
| 20260503233812 | 48 | 210 | 0.0 | 0.0 | 0.00 | 0.04 | 0.00 | 52 | 1008.5 |
| 20260503233313 | 48 | 210 | 0.0 | 0.0 | 0.00 | 0.04 | 0.00 | 52 | 1008.5 |
| 20260503233029 | 48 | 210 | 0.0 | 0.0 | 0.00 | 0.04 | 0.00 | 52 | 1008.5 |
| 20260503232743 | 48 | 210 | 0.0 | 0.0 | 0.00 | 0.04 | 0.00 | 52 | 1008.5 |
| 20260503231809 | 48 | 210 | 0.0 | 0.0 | 0.00 | 0.04 | 0.00 | 54 | 1008.5 |
| 20260503231309 | 48 | 210 | 0.0 | 0.0 | 0.00 | 0.04 | 0.00 | 51 | 1008.5 |
| 20260503230809 | 48 | 210 | 0.0 | 0.0 | 0.00 | 0.04 | 0.00 | 51 | 1008.5 |
| 20260503230310 | 48 | 259 | 0.0 | 0.0 | 0.00 | 0.04 | 0.00 | 50 | 1008.5 |
| 20260503230033 | 48 | 259 | 0.0 | 0.0 | 0.00 | 0.04 | 0.00 | 51 | 1008.5 |
| 20260503225309 | 48 | 259 | 0.0 | 0.0 | 0.00 | 0.04 | 0.00 | 52 | 1008.6 |
| 20260503225035 | 48 | 259 | 0.0 | 0.0 | 0.00 | 0.04 | 0.00 | 50 | 1008.6 |
| 20260503224303 | 49 | 280 | 0.0 | 0.0 | 0.00 | 0.04 | 0.00 | 48 | 1008.5 |
| 20260503223758 | 49 | 285 | 0.0 | 0.0 | 0.00 | 0.04 | 0.00 | 50 | 1008.5 |
| 20260503223252 | 49 | 285 | 0.0 | 0.0 | 0.00 | 0.05 | 0.00 | 48 | 1008.5 |
| 20260503222751 | 49 | 285 | 0.0 | 0.0 | 0.00 | 0.05 | 0.00 | 48 | 1008.5 |
| 20260503222249 | 48 | 285 | 0.0 | 0.0 | 0.00 | 0.05 | 0.00 | 47 | 1008.5 |
| 20260503221749 | 49 | 285 | 0.0 | 0.9 | 0.00 | 0.05 | 0.00 | 47 | 1008.6 |
| 20260503221250 | 49 | 346 | 0.0 | 0.9 | 0.00 | 0.05 | 0.00 | 47 | 1008.5 |
| 20260503220747 | 49 | 306 | 0.0 | 2.6 | 0.00 | 0.05 | 0.00 | 46 | 1008.6 |
| 20260503220508 | 49 | 31 | 0.0 | 4.3 | 0.00 | 0.05 | 0.00 | 47 | 1008.6 |
| 20260503215746 | 49 | 297 | 0.0 | 4.3 | 0.00 | 0.05 | 0.00 | 46 | 1008.5 |
| 20260503215245 | 49 | 274 | 0.0 | 3.5 | 0.00 | 0.05 | 0.00 | 45 | 1008.4 |
| 20260503214744 | 49 | 328 | 0.0 | 3.5 | 0.00 | 0.05 | 0.00 | 45 | 1008.5 |
| 20260503214242 | 49 | 311 | 0.0 | 1.7 | 0.00 | 0.05 | 0.00 | 45 | 1008.5 |
| 20260503213742 | 49 | 293 | 0.9 | 5.2 | 0.00 | 0.05 | 0.00 | 47 | 1008.5 |
| 20260503213242 | 49 | 2 | 1.7 | 5.2 | 0.00 | 0.05 | 0.00 | 47 | 1008.5 |
| 20260503212740 | 49 | 21 | 0.9 | 6.1 | 0.00 | 0.05 | 0.00 | 46 | 1008.4 |
| 20260503212237 | 49 | 35 | 1.7 | 7.0 | 0.00 | 0.05 | 0.00 | 46 | 1008.4 |
| 20260503212218 | 49 | 337 | 0.9 | 7.0 | 0.00 | 0.05 | 0.00 | 46 | 1008.5 |
| 20260503211238 | 49 | 297 | 0.9 | 7.0 | 0.00 | 0.05 | 0.00 | 48 | 1008.5 |
| 20260503210737 | 49 | 20 | 0.9 | 7.0 | 0.00 | 0.05 | 0.00 | 46 | 1008.5 |
| 20260503210236 | 49 | 66 | 0.9 | 5.2 | 0.00 | 0.05 | 0.00 | 50 | 1008.4 |
| 20260503210221 | 49 | 41 | 0.9 | 5.2 | 0.00 | 0.05 | 0.00 | 47 | 1008.5 |
| 20260503205238 | 49 | 332 | 0.9 | 3.5 | 0.00 | 0.05 | 0.00 | 47 | 1008.5 |
| 20260503204737 | 48 | 304 | 0.9 | 6.1 | 0.00 | 0.05 | 0.00 | 48 | 1008.5 |
| 20260503204714 | 48 | 309 | 0.9 | 6.1 | 0.00 | 0.05 | 0.00 | 49 | 1008.5 |
| 20260503204000 | 48 | 18 | 0.9 | 6.1 | 0.00 | 0.05 | 0.00 | 49 | 1008.6 |
| 20260503203724 | 48 | 320 | 1.7 | 8.7 | 0.00 | 0.05 | 0.00 | 48 | 1008.5 |
| 20260503202955 | 48 | 55 | 1.7 | 8.7 | 0.00 | 0.05 | 0.00 | 50 | 1008.5 |
| 20260503202231 | 49 | 285 | 2.6 | 6.1 | 0.00 | 0.05 | 0.00 | 47 | 1008.6 |
| 20260503201729 | 49 | 309 | 2.6 | 8.7 | 0.00 | 0.05 | 0.00 | 46 | 1008.5 |
| 20260503201227 | 49 | 30 | 1.7 | 7.8 | 0.00 | 0.05 | 0.00 | 48 | 1008.5 |
| 20260503200727 | 48 | 351 | 0.9 | 7.0 | 0.00 | 0.05 | 0.00 | 50 | 1008.6 |
| 20260503200227 | 48 | 342 | 0.9 | 6.1 | 0.00 | 0.05 | 0.00 | 51 | 1008.7 |
| 20260503195729 | 48 | 283 | 1.7 | 7.8 | 0.00 | 0.05 | 0.00 | 49 | 1008.8 |
| 20260503195226 | 48 | 53 | 0.9 | 7.8 | 0.00 | 0.05 | 0.00 | 50 | 1008.8 |
| 20260503194727 | 48 | 330 | 1.7 | 6.1 | 0.00 | 0.05 | 0.00 | 51 | 1008.9 |
| 20260503194227 | 47 | 285 | 1.7 | 9.6 | 0.00 | 0.05 | 0.00 | 51 | 1009.0 |
| 20260503193724 | 47 | 262 | 2.6 | 9.6 | 0.00 | 0.05 | 0.00 | 50 | 1009.0 |
| 20260503193225 | 47 | 324 | 2.6 | 9.6 | 0.00 | 0.05 | 0.00 | 52 | 1009.2 |
| 20260503192718 | 47 | 307 | 1.7 | 7.0 | 0.00 | 0.05 | 0.00 | 51 | 1009.2 |
| 20260503192219 | 47 | 224 | 0.9 | 7.0 | 0.00 | 0.05 | 0.00 | 53 | 1009.2 |
| 20260503191719 | 47 | 259 | 2.6 | 9.6 | 0.00 | 0.05 | 0.00 | 53 | 1009.2 |
| 20260503191219 | 47 | 284 | 2.6 | 9.6 | 0.00 | 0.05 | 0.00 | 50 | 1009.1 |
| 20260503190717 | 47 | 290 | 1.7 | 5.2 | 0.00 | 0.05 | 0.00 | 52 | 1009.2 |
| 20260503190216 | 47 | 238 | 3.5 | 13.9 | 0.00 | 0.05 | 0.00 | 51 | 1009.3 |
| 20260503185717 | 47 | 214 | 4.3 | 13.9 | 0.00 | 0.05 | 0.00 | 51 | 1009.3 |
| 20260503185217 | 47 | 254 | 2.6 | 12.2 | 0.00 | 0.05 | 0.00 | 54 | 1009.4 |
| 20260503184947 | 46 | 275 | 2.6 | 7.8 | 0.00 | 0.05 | 0.00 | 52 | 1009.4 |
| 20260503184442 | 46 | 310 | 1.7 | 8.7 | 0.00 | 0.05 | 0.00 | 53 | 1009.5 |
| 20260503183713 | 46 | 340 | 1.7 | 8.7 | 0.00 | 0.05 | 0.00 | 52 | 1009.5 |
| 20260503183431 | 46 | 354 | 1.7 | 7.0 | 0.00 | 0.05 | 0.00 | 51 | 1009.5 |
| 20260503182714 | 46 | 300 | 2.6 | 9.6 | 0.00 | 0.05 | 0.00 | 50 | 1009.4 |
| 20260503182212 | 47 | 344 | 2.6 | 9.6 | 0.00 | 0.05 | 0.00 | 49 | 1009.5 |
| 20260503181712 | 47 | 1 | 2.6 | 9.6 | 0.00 | 0.05 | 0.00 | 51 | 1009.5 |
| 20260503181440 | 47 | 159 | 1.7 | 9.6 | 0.00 | 0.05 | 0.00 | 50 | 1009.5 |
| 20260503180713 | 47 | 40 | 0.9 | 7.0 | 0.00 | 0.05 | 0.00 | 53 | 1009.5 |
| 20260503180213 | 47 | 146 | 1.7 | 7.8 | 0.00 | 0.05 | 0.00 | 53 | 1009.5 |
| 20260503175714 | 46 | 37 | 1.7 | 7.8 | 0.00 | 0.05 | 0.00 | 52 | 1009.6 |
| 20260503175436 | 46 | 285 | 2.6 | 7.0 | 0.00 | 0.05 | 0.00 | 53 | 1009.5 |
| 20260503174713 | 46 | 300 | 2.6 | 7.8 | 0.00 | 0.05 | 0.00 | 53 | 1009.6 |
| 20260503174213 | 46 | 281 | 1.7 | 7.8 | 0.00 | 0.05 | 0.00 | 52 | 1009.7 |
| 20260503173711 | 47 | 249 | 0.9 | 6.1 | 0.00 | 0.05 | 0.00 | 51 | 1009.6 |
| 20260503173211 | 47 | 264 | 0.9 | 7.0 | 0.00 | 0.05 | 0.00 | 52 | 1009.7 |
| 20260503172712 | 47 | 214 | 1.7 | 8.7 | 0.00 | 0.05 | 0.00 | 50 | 1009.7 |
| 20260503172211 | 47 | 57 | 1.7 | 9.6 | 0.00 | 0.05 | 0.00 | 52 | 1009.7 |
| 20260503171711 | 46 | 278 | 1.7 | 9.6 | 0.00 | 0.05 | 0.00 | 53 | 1009.7 |
| 20260503171210 | 46 | 257 | 2.6 | 9.6 | 0.00 | 0.05 | 0.00 | 51 | 1009.7 |
| 20260503170710 | 46 | 306 | 2.6 | 10.4 | 0.00 | 0.05 | 0.00 | 51 | 1009.7 |
| 20260503170652 | 47 | 327 | 1.7 | 10.4 | 0.00 | 0.05 | 0.00 | 51 | 1009.7 |
| 20260503160122 | 47 | 323 | 2.6 | 11.3 | 0.00 | 0.05 | 0.00 | 50 | 1010.1 |
| 20260503150516 | 46 | 293 | 4.3 | 12.2 | 0.00 | 0.05 | 0.00 | 52 | 1010.3 |